iso_date,epoch_date,Year,Hour,Min,DOY,POS_DOY,Lat,Lon,BP,Ts,Ta,has_bp,has_ts,has_ta,BuoyID,Buoy_Type,Buoy_Owner,Logistics,Hemisphere
2021-07-06T18:00:00Z,1625594400,2021,18,0,187.75,187.75,61.835,-14.796,1006.8,12.3,-999.0,yes,yes,no,300234066214730,BD2VHI,AOML,UNKNOWN,North
2021-07-06T21:00:00Z,1625605200,2021,21,0,187.875,187.875,61.831,-14.785,1007.2,12.27,-999.0,yes,yes,no,300234066214730,BD2VHI,AOML,UNKNOWN,North
2021-07-07T00:00:00Z,1625616000,2021,0,0,188.0,188.0,61.819,-14.769,1007.9,12.2,-999.0,yes,yes,no,300234066214730,BD2VHI,AOML,UNKNOWN,North
2021-07-07T03:00:00Z,1625626800,2021,3,0,188.125,188.125,61.802,-14.761,1008.0,12.13,-999.0,yes,yes,no,300234066214730,BD2VHI,AOML,UNKNOWN,North
2021-07-07T06:00:00Z,1625637600,2021,6,0,188.25,188.25,61.793,-14.764,1008.4,12.02,-999.0,yes,yes,no,300234066214730,BD2VHI,AOML,UNKNOWN,North
2021-07-07T09:00:00Z,1625648400,2021,9,0,188.375,188.375,61.793,-14.743,1009.5,11.97,-999.0,yes,yes,no,300234066214730,BD2VHI,AOML,UNKNOWN,North
2021-07-07T12:00:00Z,1625659200,2021,12,0,188.5,188.5,61.785,-14.722,1010.5,12.04,-999.0,yes,yes,no,300234066214730,BD2VHI,AOML,UNKNOWN,North
2021-07-07T15:00:00Z,1625670000,2021,15,0,188.625,188.625,61.775,-14.723,1011.2,12.08,-999.0,yes,yes,no,300234066214730,BD2VHI,AOML,UNKNOWN,North
2021-07-07T18:00:00Z,1625680800,2021,18,0,188.75,188.75,61.78,-14.717,1011.8,12.34,-999.0,yes,yes,no,300234066214730,BD2VHI,AOML,UNKNOWN,North
2021-07-07T21:00:00Z,1625691600,2021,21,0,188.875,188.875,61.783,-14.671,1012.9,12.26,-999.0,yes,yes,no,300234066214730,BD2VHI,AOML,UNKNOWN,North
2021-07-08T00:00:00Z,1625702400,2021,0,0,189.0,189.0,61.774,-14.648,1013.8,12.19,-999.0,yes,yes,no,300234066214730,BD2VHI,AOML,UNKNOWN,North
2021-07-08T03:00:00Z,1625713200,2021,3,0,189.125,189.125,61.764,-14.638,1014.1,12.07,-999.0,yes,yes,no,300234066214730,BD2VHI,AOML,UNKNOWN,North
2021-07-08T06:00:00Z,1625724000,2021,6,0,189.25,189.25,61.764,-14.624,1014.6,12.1,-999.0,yes,yes,no,300234066214730,BD2VHI,AOML,UNKNOWN,North
2021-07-08T09:00:00Z,1625734800,2021,9,0,189.375,189.375,61.768,-14.586,1015.7,11.97,-999.0,yes,yes,no,300234066214730,BD2VHI,AOML,UNKNOWN,North
2021-07-08T12:00:00Z,1625745600,2021,12,0,189.5,189.5,61.774,-14.545,1016.4,11.9,-999.0,yes,yes,no,300234066214730,BD2VHI,AOML,UNKNOWN,North
2021-07-08T15:00:00Z,1625756400,2021,15,0,189.625,189.625,61.772,-14.518,1017.0,12.03,-999.0,yes,yes,no,300234066214730,BD2VHI,AOML,UNKNOWN,North
2021-07-08T18:00:00Z,1625767200,2021,18,0,189.75,189.75,61.776,-14.487,1017.3,12.19,-999.0,yes,yes,no,300234066214730,BD2VHI,AOML,UNKNOWN,North
2021-07-08T21:00:00Z,1625778000,2021,21,0,189.875,189.875,61.791,-14.457,1018.5,12.13,-999.0,yes,yes,no,300234066214730,BD2VHI,AOML,UNKNOWN,North
2021-07-09T00:00:00Z,1625788800,2021,0,0,190.0,190.0,61.814,-14.422,1019.1,12.07,-999.0,yes,yes,no,300234066214730,BD2VHI,AOML,UNKNOWN,North
2021-07-09T03:00:00Z,1625799600,2021,3,0,190.125,190.125,61.837,-14.395,1019.2,12.03,-999.0,yes,yes,no,300234066214730,BD2VHI,AOML,UNKNOWN,North
2021-07-09T06:00:00Z,1625810400,2021,6,0,190.25,190.25,61.857,-14.358,1019.1,11.91,-999.0,yes,yes,no,300234066214730,BD2VHI,AOML,UNKNOWN,North
2021-07-09T09:00:00Z,1625821200,2021,9,0,190.375,190.375,61.876,-14.336,1019.3,11.9,-999.0,yes,yes,no,300234066214730,BD2VHI,AOML,UNKNOWN,North
2021-07-09T12:00:00Z,1625832000,2021,12,0,190.5,190.5,61.905,-14.319,1019.5,12.0,-999.0,yes,yes,no,300234066214730,BD2VHI,AOML,UNKNOWN,North
2021-07-09T15:00:00Z,1625842800,2021,15,0,190.625,190.625,61.927,-14.317,1019.1,12.15,-999.0,yes,yes,no,300234066214730,BD2VHI,AOML,UNKNOWN,North
2021-07-09T18:00:00Z,1625853600,2021,18,0,190.75,190.75,61.95,-14.315,1018.6,12.29,-999.0,yes,yes,no,300234066214730,BD2VHI,AOML,UNKNOWN,North
2021-07-09T21:00:00Z,1625864400,2021,21,0,190.875,190.875,61.97,-14.294,1018.9,12.2,-999.0,yes,yes,no,300234066214730,BD2VHI,AOML,UNKNOWN,North
2021-07-10T00:00:00Z,1625875200,2021,0,0,191.0,191.0,61.984,-14.28,1018.8,12.1,-999.0,yes,yes,no,300234066214730,BD2VHI,AOML,UNKNOWN,North
2021-07-10T03:00:00Z,1625886000,2021,3,0,191.125,191.125,61.998,-14.296,1017.6,11.96,-999.0,yes,yes,no,300234066214730,BD2VHI,AOML,UNKNOWN,North
2021-07-10T06:00:00Z,1625896800,2021,6,0,191.25,191.25,62.015,-14.313,1017.4,11.95,-999.0,yes,yes,no,300234066214730,BD2VHI,AOML,UNKNOWN,North
2021-07-10T09:00:00Z,1625907600,2021,9,0,191.375,191.375,62.032,-14.304,1017.2,11.93,-999.0,yes,yes,no,300234066214730,BD2VHI,AOML,UNKNOWN,North
2021-07-10T12:00:00Z,1625918400,2021,12,0,191.5,191.5,62.05,-14.314,1017.3,11.97,-999.0,yes,yes,no,300234066214730,BD2VHI,AOML,UNKNOWN,North
2021-07-10T15:00:00Z,1625929200,2021,15,0,191.625,191.625,62.065,-14.348,1016.8,12.07,-999.0,yes,yes,no,300234066214730,BD2VHI,AOML,UNKNOWN,North
2021-07-10T18:00:00Z,1625940000,2021,18,0,191.75,191.75,62.085,-14.38,1016.4,12.08,-999.0,yes,yes,no,300234066214730,BD2VHI,AOML,UNKNOWN,North
2021-07-10T21:00:00Z,1625950800,2021,21,0,191.875,191.875,62.103,-14.386,1016.9,12.0,-999.0,yes,yes,no,300234066214730,BD2VHI,AOML,UNKNOWN,North
2021-07-11T00:00:00Z,1625961600,2021,0,0,192.0,192.0,62.111,-14.388,1017.2,11.95,-999.0,yes,yes,no,300234066214730,BD2VHI,AOML,UNKNOWN,North
2021-07-11T03:00:00Z,1625972400,2021,3,0,192.125,192.125,62.115,-14.423,1016.6,11.94,-999.0,yes,yes,no,300234066214730,BD2VHI,AOML,UNKNOWN,North
2021-07-11T06:00:00Z,1625983200,2021,6,0,192.25,192.25,62.124,-14.456,1016.6,11.94,-999.0,yes,yes,no,300234066214730,BD2VHI,AOML,UNKNOWN,North
2021-07-11T09:00:00Z,1625994000,2021,9,0,192.375,192.375,62.13,-14.47,1016.7,11.97,-999.0,yes,yes,no,300234066214730,BD2VHI,AOML,UNKNOWN,North
2021-07-11T12:00:00Z,1626004800,2021,12,0,192.5,192.5,62.137,-14.475,1017.3,12.04,-999.0,yes,yes,no,300234066214730,BD2VHI,AOML,UNKNOWN,North
2021-07-11T15:00:00Z,1626015600,2021,15,0,192.625,192.625,62.141,-14.504,1017.0,12.32,-999.0,yes,yes,no,300234066214730,BD2VHI,AOML,UNKNOWN,North
2021-07-11T18:00:00Z,1626026400,2021,18,0,192.75,192.75,62.154,-14.521,1016.3,12.71,-999.0,yes,yes,no,300234066214730,BD2VHI,AOML,UNKNOWN,North
2021-07-11T21:00:00Z,1626037200,2021,21,0,192.875,192.875,62.166,-14.508,1016.3,12.6,-999.0,yes,yes,no,300234066214730,BD2VHI,AOML,UNKNOWN,North
2021-07-12T00:00:00Z,1626048000,2021,0,0,193.0,193.0,62.165,-14.484,1016.2,12.43,-999.0,yes,yes,no,300234066214730,BD2VHI,AOML,UNKNOWN,North
2021-07-12T03:00:00Z,1626058800,2021,3,0,193.125,193.125,62.177,-14.496,1015.3,12.37,-999.0,yes,yes,no,300234066214730,BD2VHI,AOML,UNKNOWN,North
2021-07-12T06:00:00Z,1626069600,2021,6,0,193.25,193.25,62.187,-14.482,1014.6,12.36,-999.0,yes,yes,no,300234066214730,BD2VHI,AOML,UNKNOWN,North
2021-07-12T09:00:00Z,1626080400,2021,9,0,193.375,193.375,62.197,-14.455,1014.4,12.34,-999.0,yes,yes,no,300234066214730,BD2VHI,AOML,UNKNOWN,North
2021-07-12T12:00:00Z,1626091200,2021,12,0,193.5,193.5,62.216,-14.433,1014.6,12.52,-999.0,yes,yes,no,300234066214730,BD2VHI,AOML,UNKNOWN,North
2021-07-12T15:00:00Z,1626102000,2021,15,0,193.625,193.625,62.24,-14.416,1014.0,12.49,-999.0,yes,yes,no,300234066214730,BD2VHI,AOML,UNKNOWN,North
2021-07-12T18:00:00Z,1626112800,2021,18,0,193.75,193.75,62.262,-14.415,1013.6,12.42,-999.0,yes,yes,no,300234066214730,BD2VHI,AOML,UNKNOWN,North
2021-07-12T21:00:00Z,1626123600,2021,21,0,193.875,193.875,62.289,-14.38,1013.5,12.33,-999.0,yes,yes,no,300234066214730,BD2VHI,AOML,UNKNOWN,North
2021-07-13T00:00:00Z,1626134400,2021,0,0,194.0,194.0,62.312,-14.333,1013.8,12.18,-999.0,yes,yes,no,300234066214730,BD2VHI,AOML,UNKNOWN,North
2021-07-13T03:00:00Z,1626145200,2021,3,0,194.125,194.125,62.33,-14.323,1013.6,12.21,-999.0,yes,yes,no,300234066214730,BD2VHI,AOML,UNKNOWN,North
2021-07-13T06:00:00Z,1626156000,2021,6,0,194.25,194.25,62.354,-14.321,1012.9,12.09,-999.0,yes,yes,no,300234066214730,BD2VHI,AOML,UNKNOWN,North
2021-07-13T09:00:00Z,1626166800,2021,9,0,194.375,194.375,62.359,-14.27,1014.1,12.12,-999.0,yes,yes,no,300234066214730,BD2VHI,AOML,UNKNOWN,North
2021-07-13T12:00:00Z,1626177600,2021,12,0,194.5,194.5,62.367,-14.217,1014.8,12.19,-999.0,yes,yes,no,300234066214730,BD2VHI,AOML,UNKNOWN,North
2021-07-13T15:00:00Z,1626188400,2021,15,0,194.625,194.625,62.375,-14.184,1015.3,12.27,-999.0,yes,yes,no,300234066214730,BD2VHI,AOML,UNKNOWN,North
2021-07-13T18:00:00Z,1626199200,2021,18,0,194.75,194.75,62.388,-14.165,1014.5,12.2,-999.0,yes,yes,no,300234066214730,BD2VHI,AOML,UNKNOWN,North
2021-07-13T21:00:00Z,1626210000,2021,21,0,194.875,194.875,62.408,-14.122,1014.8,12.22,-999.0,yes,yes,no,300234066214730,BD2VHI,AOML,UNKNOWN,North
2021-07-14T00:00:00Z,1626220800,2021,0,0,195.0,195.0,62.419,-14.061,1013.5,12.21,-999.0,yes,yes,no,300234066214730,BD2VHI,AOML,UNKNOWN,North
2021-07-14T03:00:00Z,1626231600,2021,3,0,195.125,195.125,62.437,-14.032,1011.8,12.2,-999.0,yes,yes,no,300234066214730,BD2VHI,AOML,UNKNOWN,North
2021-07-14T06:00:00Z,1626242400,2021,6,0,195.25,195.25,62.455,-14.018,1009.0,12.18,-999.0,yes,yes,no,300234066214730,BD2VHI,AOML,UNKNOWN,North
2021-07-14T09:00:00Z,1626253200,2021,9,0,195.375,195.375,62.473,-14.012,1006.0,12.15,-999.0,yes,yes,no,300234066214730,BD2VHI,AOML,UNKNOWN,North
2021-07-14T12:00:00Z,1626264000,2021,12,0,195.5,195.5,62.49,-14.004,1003.2,12.3,-999.0,yes,yes,no,300234066214730,BD2VHI,AOML,UNKNOWN,North
2021-07-14T15:00:00Z,1626274800,2021,15,0,195.625,195.625,62.505,-13.961,1003.5,12.44,-999.0,yes,yes,no,300234066214730,BD2VHI,AOML,UNKNOWN,North
2021-07-14T18:00:00Z,1626285600,2021,18,0,195.75,195.75,62.497,-13.889,1004.9,12.12,-999.0,yes,yes,no,300234066214730,BD2VHI,AOML,UNKNOWN,North
2021-07-14T21:00:00Z,1626296400,2021,21,0,195.875,195.875,62.487,-13.81,1006.7,11.96,-999.0,yes,yes,no,300234066214730,BD2VHI,AOML,UNKNOWN,North
2021-07-15T00:00:00Z,1626307200,2021,0,0,196.0,196.0,62.485,-13.71,1008.5,11.59,-999.0,yes,yes,no,300234066214730,BD2VHI,AOML,UNKNOWN,North
2021-07-15T03:00:00Z,1626318000,2021,3,0,196.125,196.125,62.473,-13.604,1011.1,11.64,-999.0,yes,yes,no,300234066214730,BD2VHI,AOML,UNKNOWN,North
2021-07-15T06:00:00Z,1626328800,2021,6,0,196.25,196.25,62.449,-13.552,1012.6,11.65,-999.0,yes,yes,no,300234066214730,BD2VHI,AOML,UNKNOWN,North
2021-07-15T09:00:00Z,1626339600,2021,9,0,196.375,196.375,62.446,-13.552,1013.4,11.66,-999.0,yes,yes,no,300234066214730,BD2VHI,AOML,UNKNOWN,North
2021-07-15T12:00:00Z,1626350400,2021,12,0,196.5,196.5,62.473,-13.535,1012.8,11.65,-999.0,yes,yes,no,300234066214730,BD2VHI,AOML,UNKNOWN,North
2021-07-15T15:00:00Z,1626361200,2021,15,0,196.625,196.625,62.499,-13.492,1010.0,11.65,-999.0,yes,yes,no,300234066214730,BD2VHI,AOML,UNKNOWN,North
2021-07-15T18:00:00Z,1626372000,2021,18,0,196.75,196.75,62.504,-13.486,1007.6,11.65,-999.0,yes,yes,no,300234066214730,BD2VHI,AOML,UNKNOWN,North
2021-07-15T21:00:00Z,1626382800,2021,21,0,196.875,196.875,62.516,-13.5,1007.2,11.59,-999.0,yes,yes,no,300234066214730,BD2VHI,AOML,UNKNOWN,North
2021-07-16T00:00:00Z,1626393600,2021,0,0,197.0,197.0,62.556,-13.479,1006.6,11.53,-999.0,yes,yes,no,300234066214730,BD2VHI,AOML,UNKNOWN,North
2021-07-16T03:00:00Z,1626404400,2021,3,0,197.125,197.125,62.592,-13.402,1005.5,11.43,-999.0,yes,yes,no,300234066214730,BD2VHI,AOML,UNKNOWN,North
2021-07-16T06:00:00Z,1626415200,2021,6,0,197.25,197.25,62.61,-13.347,1004.1,11.29,-999.0,yes,yes,no,300234066214730,BD2VHI,AOML,UNKNOWN,North
2021-07-16T09:00:00Z,1626426000,2021,9,0,197.375,197.375,62.619,-13.323,1004.5,11.23,-999.0,yes,yes,no,300234066214730,BD2VHI,AOML,UNKNOWN,North
2021-07-16T12:00:00Z,1626436800,2021,12,0,197.5,197.5,62.637,-13.261,1006.8,11.21,-999.0,yes,yes,no,300234066214730,BD2VHI,AOML,UNKNOWN,North
2021-07-16T15:00:00Z,1626447600,2021,15,0,197.625,197.625,62.661,-13.171,1007.9,11.26,-999.0,yes,yes,no,300234066214730,BD2VHI,AOML,UNKNOWN,North
2021-07-16T18:00:00Z,1626458400,2021,18,0,197.75,197.75,62.678,-13.111,1008.8,11.15,-999.0,yes,yes,no,300234066214730,BD2VHI,AOML,UNKNOWN,North
2021-07-16T21:00:00Z,1626469200,2021,21,0,197.875,197.875,62.696,-13.046,1009.7,10.99,-999.0,yes,yes,no,300234066214730,BD2VHI,AOML,UNKNOWN,North
2021-07-17T00:00:00Z,1626480000,2021,0,0,198.0,198.0,62.7,-12.969,1009.9,10.93,-999.0,yes,yes,no,300234066214730,BD2VHI,AOML,UNKNOWN,North
2021-07-17T03:00:00Z,1626490800,2021,3,0,198.125,198.125,62.71,-12.881,1009.8,11.0,-999.0,yes,yes,no,300234066214730,BD2VHI,AOML,UNKNOWN,North
2021-07-17T06:00:00Z,1626501600,2021,6,0,198.25,198.25,62.707,-12.781,1011.0,10.82,-999.0,yes,yes,no,300234066214730,BD2VHI,AOML,UNKNOWN,North
2021-07-17T09:00:00Z,1626512400,2021,9,0,198.375,198.375,62.681,-12.719,1013.2,10.77,-999.0,yes,yes,no,300234066214730,BD2VHI,AOML,UNKNOWN,North
2021-07-17T12:00:00Z,1626523200,2021,12,0,198.5,198.5,62.668,-12.665,1015.9,10.82,-999.0,yes,yes,no,300234066214730,BD2VHI,AOML,UNKNOWN,North
2021-07-17T15:00:00Z,1626534000,2021,15,0,198.625,198.625,62.665,-12.601,1017.6,10.89,-999.0,yes,yes,no,300234066214730,BD2VHI,AOML,UNKNOWN,North
2021-07-17T18:00:00Z,1626544800,2021,18,0,198.75,198.75,62.66,-12.537,1019.0,10.92,-999.0,yes,yes,no,300234066214730,BD2VHI,AOML,UNKNOWN,North
2021-07-17T21:00:00Z,1626555600,2021,21,0,198.875,198.875,62.652,-12.5,1019.9,10.95,-999.0,yes,yes,no,300234066214730,BD2VHI,AOML,UNKNOWN,North
2021-07-18T00:00:00Z,1626566400,2021,0,0,199.0,199.0,62.656,-12.456,1020.3,10.98,-999.0,yes,yes,no,300234066214730,BD2VHI,AOML,UNKNOWN,North
2021-07-18T03:00:00Z,1626577200,2021,3,0,199.125,199.125,62.664,-12.381,1020.5,10.9,-999.0,yes,yes,no,300234066214730,BD2VHI,AOML,UNKNOWN,North
2021-07-18T06:00:00Z,1626588000,2021,6,0,199.25,199.25,62.661,-12.305,1020.5,10.85,-999.0,yes,yes,no,300234066214730,BD2VHI,AOML,UNKNOWN,North
2021-07-18T09:00:00Z,1626598800,2021,9,0,199.375,199.375,62.642,-12.265,1021.3,10.74,-999.0,yes,yes,no,300234066214730,BD2VHI,AOML,UNKNOWN,North
2021-07-18T12:00:00Z,1626609600,2021,12,0,199.5,199.5,62.63,-12.233,1021.1,10.58,-999.0,yes,yes,no,300234066214730,BD2VHI,AOML,UNKNOWN,North
2021-07-18T15:00:00Z,1626620400,2021,15,0,199.625,199.625,62.634,-12.189,1021.0,10.55,-999.0,yes,yes,no,300234066214730,BD2VHI,AOML,UNKNOWN,North
2021-07-18T18:00:00Z,1626631200,2021,18,0,199.75,199.75,62.644,-12.128,1019.8,10.73,-999.0,yes,yes,no,300234066214730,BD2VHI,AOML,UNKNOWN,North
2021-07-18T21:00:00Z,1626642000,2021,21,0,199.875,199.875,62.642,-12.093,1019.3,10.75,-999.0,yes,yes,no,300234066214730,BD2VHI,AOML,UNKNOWN,North
2021-07-19T00:00:00Z,1626652800,2021,0,0,200.0,200.0,62.647,-12.079,1018.1,11.29,-999.0,yes,yes,no,300234066214730,BD2VHI,AOML,UNKNOWN,North
2021-07-19T03:00:00Z,1626663600,2021,3,0,200.125,200.125,62.657,-12.033,1017.2,11.34,-999.0,yes,yes,no,300234066214730,BD2VHI,AOML,UNKNOWN,North
2021-07-19T06:00:00Z,1626674400,2021,6,0,200.25,200.25,62.663,-11.969,1016.6,11.31,-999.0,yes,yes,no,300234066214730,BD2VHI,AOML,UNKNOWN,North
2021-07-19T09:00:00Z,1626685200,2021,9,0,200.375,200.375,62.657,-11.919,1016.7,11.21,-999.0,yes,yes,no,300234066214730,BD2VHI,AOML,UNKNOWN,North
2021-07-19T12:00:00Z,1626696000,2021,12,0,200.5,200.5,62.649,-11.888,1016.9,11.15,-999.0,yes,yes,no,300234066214730,BD2VHI,AOML,UNKNOWN,North
2021-07-19T15:00:00Z,1626706800,2021,15,0,200.625,200.625,62.642,-11.845,1017.9,11.11,-999.0,yes,yes,no,300234066214730,BD2VHI,AOML,UNKNOWN,North
2021-07-19T18:00:00Z,1626717600,2021,18,0,200.75,200.75,62.634,-11.811,1018.7,11.09,-999.0,yes,yes,no,300234066214730,BD2VHI,AOML,UNKNOWN,North
2021-07-19T21:00:00Z,1626728400,2021,21,0,200.875,200.875,62.634,-11.795,1019.2,11.08,-999.0,yes,yes,no,300234066214730,BD2VHI,AOML,UNKNOWN,North
2021-07-20T00:00:00Z,1626739200,2021,0,0,201.0,201.0,62.633,-11.77,1019.4,11.01,-999.0,yes,yes,no,300234066214730,BD2VHI,AOML,UNKNOWN,North
2021-07-20T03:00:00Z,1626750000,2021,3,0,201.125,201.125,62.633,-11.708,1019.3,10.84,-999.0,yes,yes,no,300234066214730,BD2VHI,AOML,UNKNOWN,North
2021-07-20T06:00:00Z,1626760800,2021,6,0,201.25,201.25,62.63,-11.638,1019.4,10.67,-999.0,yes,yes,no,300234066214730,BD2VHI,AOML,UNKNOWN,North
2021-07-20T09:00:00Z,1626771600,2021,9,0,201.375,201.375,62.63,-11.605,1019.9,10.69,-999.0,yes,yes,no,300234066214730,BD2VHI,AOML,UNKNOWN,North
2021-07-20T12:00:00Z,1626782400,2021,12,0,201.5,201.5,62.638,-11.581,1019.6,10.73,-999.0,yes,yes,no,300234066214730,BD2VHI,AOML,UNKNOWN,North
2021-07-20T15:00:00Z,1626793200,2021,15,0,201.625,201.625,62.65,-11.534,1019.7,10.88,-999.0,yes,yes,no,300234066214730,BD2VHI,AOML,UNKNOWN,North
2021-07-20T18:00:00Z,1626804000,2021,18,0,201.75,201.75,62.681,-11.484,1019.2,10.93,-999.0,yes,yes,no,300234066214730,BD2VHI,AOML,UNKNOWN,North
2021-07-20T21:00:00Z,1626814800,2021,21,0,201.875,201.875,62.722,-11.428,1018.8,10.89,-999.0,yes,yes,no,300234066214730,BD2VHI,AOML,UNKNOWN,North
2021-07-21T00:00:00Z,1626825600,2021,0,0,202.0,202.0,62.755,-11.365,1018.4,10.8,-999.0,yes,yes,no,300234066214730,BD2VHI,AOML,UNKNOWN,North
2021-07-21T03:00:00Z,1626836400,2021,3,0,202.125,202.125,62.783,-11.295,1018.0,11.13,-999.0,yes,yes,no,300234066214730,BD2VHI,AOML,UNKNOWN,North
2021-07-21T06:00:00Z,1626847200,2021,6,0,202.25,202.25,62.814,-11.183,1017.8,11.08,-999.0,yes,yes,no,300234066214730,BD2VHI,AOML,UNKNOWN,North
2021-07-21T09:00:00Z,1626858000,2021,9,0,202.375,202.375,62.829,-11.057,1018.1,11.3,-999.0,yes,yes,no,300234066214730,BD2VHI,AOML,UNKNOWN,North
2021-07-21T12:00:00Z,1626868800,2021,12,0,202.5,202.5,62.804,-10.978,1018.7,11.28,-999.0,yes,yes,no,300234066214730,BD2VHI,AOML,UNKNOWN,North
2021-07-21T15:00:00Z,1626879600,2021,15,0,202.625,202.625,62.785,-10.929,1019.5,11.23,-999.0,yes,yes,no,300234066214730,BD2VHI,AOML,UNKNOWN,North
2021-07-21T18:00:00Z,1626890400,2021,18,0,202.75,202.75,62.772,-10.822,1020.2,10.87,-999.0,yes,yes,no,300234066214730,BD2VHI,AOML,UNKNOWN,North
2021-07-21T21:00:00Z,1626901200,2021,21,0,202.875,202.875,62.748,-10.733,1021.1,10.94,-999.0,yes,yes,no,300234066214730,BD2VHI,AOML,UNKNOWN,North
2021-07-22T00:00:00Z,1626912000,2021,0,0,203.0,203.0,62.716,-10.686,1022.0,11.18,-999.0,yes,yes,no,300234066214730,BD2VHI,AOML,UNKNOWN,North
2021-07-22T03:00:00Z,1626922800,2021,3,0,203.125,203.125,62.695,-10.675,1022.5,11.11,-999.0,yes,yes,no,300234066214730,BD2VHI,AOML,UNKNOWN,North
2021-07-22T06:00:00Z,1626933600,2021,6,0,203.25,203.25,62.699,-10.622,1022.8,10.9,-999.0,yes,yes,no,300234066214730,BD2VHI,AOML,UNKNOWN,North
2021-07-22T09:00:00Z,1626944400,2021,9,0,203.375,203.375,62.713,-10.542,1023.5,10.91,-999.0,yes,yes,no,300234066214730,BD2VHI,AOML,UNKNOWN,North
2021-07-22T12:00:00Z,1626955200,2021,12,0,203.5,203.5,62.704,-10.503,1023.8,11.18,-999.0,yes,yes,no,300234066214730,BD2VHI,AOML,UNKNOWN,North
2021-07-22T15:00:00Z,1626966000,2021,15,0,203.625,203.625,62.692,-10.527,1023.2,11.36,-999.0,yes,yes,no,300234066214730,BD2VHI,AOML,UNKNOWN,North
2021-07-22T18:00:00Z,1626976800,2021,18,0,203.75,203.75,62.719,-10.557,1022.0,11.42,-999.0,yes,yes,no,300234066214730,BD2VHI,AOML,UNKNOWN,North
2021-07-22T21:00:00Z,1626987600,2021,21,0,203.875,203.875,62.774,-10.516,1021.1,11.33,-999.0,yes,yes,no,300234066214730,BD2VHI,AOML,UNKNOWN,North
2021-07-23T00:00:00Z,1626998400,2021,0,0,204.0,204.0,62.788,-10.489,1020.0,11.33,-999.0,yes,yes,no,300234066214730,BD2VHI,AOML,UNKNOWN,North
2021-07-23T03:00:00Z,1627009200,2021,3,0,204.125,204.125,62.795,-10.564,1018.9,11.36,-999.0,yes,yes,no,300234066214730,BD2VHI,AOML,UNKNOWN,North
2021-07-23T06:00:00Z,1627020000,2021,6,0,204.25,204.25,62.851,-10.601,1017.7,11.38,-999.0,yes,yes,no,300234066214730,BD2VHI,AOML,UNKNOWN,North
2021-07-23T09:00:00Z,1627030800,2021,9,0,204.375,204.375,62.898,-10.526,1017.4,11.43,-999.0,yes,yes,no,300234066214730,BD2VHI,AOML,UNKNOWN,North
2021-07-23T12:00:00Z,1627041600,2021,12,0,204.5,204.5,62.911,-10.473,1016.7,11.43,-999.0,yes,yes,no,300234066214730,BD2VHI,AOML,UNKNOWN,North
2021-07-23T15:00:00Z,1627052400,2021,15,0,204.625,204.625,62.911,-10.496,1015.9,11.4,-999.0,yes,yes,no,300234066214730,BD2VHI,AOML,UNKNOWN,North
2021-07-23T18:00:00Z,1627063200,2021,18,0,204.75,204.75,62.939,-10.516,1015.1,11.43,-999.0,yes,yes,no,300234066214730,BD2VHI,AOML,UNKNOWN,North
2021-07-23T21:00:00Z,1627074000,2021,21,0,204.875,204.875,62.991,-10.454,1014.6,11.3,-999.0,yes,yes,no,300234066214730,BD2VHI,AOML,UNKNOWN,North
2021-07-24T00:00:00Z,1627084800,2021,0,0,205.0,205.0,63.013,-10.347,1014.1,11.07,-999.0,yes,yes,no,300234066214730,BD2VHI,AOML,UNKNOWN,North
2021-07-24T03:00:00Z,1627095600,2021,3,0,205.125,205.125,63.0,-10.337,1012.7,10.75,-999.0,yes,yes,no,300234066214730,BD2VHI,AOML,UNKNOWN,North
2021-07-24T06:00:00Z,1627106400,2021,6,0,205.25,205.25,63.017,-10.359,1011.7,10.84,-999.0,yes,yes,no,300234066214730,BD2VHI,AOML,UNKNOWN,North
2021-07-24T09:00:00Z,1627117200,2021,9,0,205.375,205.375,63.071,-10.305,1010.8,10.98,-999.0,yes,yes,no,300234066214730,BD2VHI,AOML,UNKNOWN,North
2021-07-24T12:00:00Z,1627128000,2021,12,0,205.5,205.5,63.103,-10.188,1010.4,10.96,-999.0,yes,yes,no,300234066214730,BD2VHI,AOML,UNKNOWN,North
2021-07-24T15:00:00Z,1627138800,2021,15,0,205.625,205.625,63.09,-10.171,1009.7,10.91,-999.0,yes,yes,no,300234066214730,BD2VHI,AOML,UNKNOWN,North
2021-07-24T18:00:00Z,1627149600,2021,18,0,205.75,205.75,63.094,-10.213,1009.2,10.94,-999.0,yes,yes,no,300234066214730,BD2VHI,AOML,UNKNOWN,North
2021-07-24T21:00:00Z,1627160400,2021,21,0,205.875,205.875,63.138,-10.158,1009.8,11.04,-999.0,yes,yes,no,300234066214730,BD2VHI,AOML,UNKNOWN,North
2021-07-25T00:00:00Z,1627171200,2021,0,0,206.0,206.0,63.154,-10.047,1010.3,10.99,-999.0,yes,yes,no,300234066214730,BD2VHI,AOML,UNKNOWN,North
2021-07-25T03:00:00Z,1627182000,2021,3,0,206.125,206.125,63.133,-10.069,1010.3,11.02,-999.0,yes,yes,no,300234066214730,BD2VHI,AOML,UNKNOWN,North
2021-07-25T06:00:00Z,1627192800,2021,6,0,206.25,206.25,63.149,-10.118,1010.7,10.97,-999.0,yes,yes,no,300234066214730,BD2VHI,AOML,UNKNOWN,North
2021-07-25T09:00:00Z,1627203600,2021,9,0,206.375,206.375,63.161,-10.053,1011.3,11.01,-999.0,yes,yes,no,300234066214730,BD2VHI,AOML,UNKNOWN,North
2021-07-25T12:00:00Z,1627214400,2021,12,0,206.5,206.5,63.163,-9.989,1011.7,11.02,-999.0,yes,yes,no,300234066214730,BD2VHI,AOML,UNKNOWN,North
2021-07-25T15:00:00Z,1627225200,2021,15,0,206.625,206.625,63.143,-10.019,1012.2,11.29,-999.0,yes,yes,no,300234066214730,BD2VHI,AOML,UNKNOWN,North
2021-07-25T18:00:00Z,1627236000,2021,18,0,206.75,206.75,63.148,-10.051,1011.8,11.37,-999.0,yes,yes,no,300234066214730,BD2VHI,AOML,UNKNOWN,North
2021-07-25T21:00:00Z,1627246800,2021,21,0,206.875,206.875,63.163,-10.017,1012.0,11.28,-999.0,yes,yes,no,300234066214730,BD2VHI,AOML,UNKNOWN,North
2021-07-26T00:00:00Z,1627257600,2021,0,0,207.0,207.0,63.183,-9.951,1012.1,11.14,-999.0,yes,yes,no,300234066214730,BD2VHI,AOML,UNKNOWN,North
2021-07-26T03:00:00Z,1627268400,2021,3,0,207.125,207.125,63.166,-9.91,1012.2,11.09,-999.0,yes,yes,no,300234066214730,BD2VHI,AOML,UNKNOWN,North
2021-07-26T06:00:00Z,1627279200,2021,6,0,207.25,207.25,63.126,-9.992,1012.0,10.97,-999.0,yes,yes,no,300234066214730,BD2VHI,AOML,UNKNOWN,North
2021-07-26T09:00:00Z,1627290000,2021,9,0,207.375,207.375,63.154,-10.064,1012.4,11.36,-999.0,yes,yes,no,300234066214730,BD2VHI,AOML,UNKNOWN,North
2021-07-26T12:00:00Z,1627300800,2021,12,0,207.5,207.5,63.207,-9.988,1012.5,11.36,-999.0,yes,yes,no,300234066214730,BD2VHI,AOML,UNKNOWN,North
2021-07-26T15:00:00Z,1627311600,2021,15,0,207.625,207.625,63.179,-9.947,1012.4,11.38,-999.0,yes,yes,no,300234066214730,BD2VHI,AOML,UNKNOWN,North
2021-07-26T18:00:00Z,1627322400,2021,18,0,207.75,207.75,63.14,-10.058,1011.7,11.45,-999.0,yes,yes,no,300234066214730,BD2VHI,AOML,UNKNOWN,North
2021-07-26T21:00:00Z,1627333200,2021,21,0,207.875,207.875,63.157,-10.137,1011.2,11.37,-999.0,yes,yes,no,300234066214730,BD2VHI,AOML,UNKNOWN,North
2021-07-27T00:00:00Z,1627344000,2021,0,0,208.0,208.0,63.19,-10.047,1010.4,11.19,-999.0,yes,yes,no,300234066214730,BD2VHI,AOML,UNKNOWN,North
2021-07-27T03:00:00Z,1627354800,2021,3,0,208.125,208.125,63.132,-9.96,1008.5,11.17,-999.0,yes,yes,no,300234066214730,BD2VHI,AOML,UNKNOWN,North
2021-07-27T06:00:00Z,1627365600,2021,6,0,208.25,208.25,63.049,-10.041,1007.2,11.24,-999.0,yes,yes,no,300234066214730,BD2VHI,AOML,UNKNOWN,North
2021-07-27T09:00:00Z,1627376400,2021,9,0,208.375,208.375,63.041,-10.168,1007.3,11.18,-999.0,yes,yes,no,300234066214730,BD2VHI,AOML,UNKNOWN,North